[[{"header":{"parameterUnit":"m.s-1","parameterCategory":1,"la1":30.2991,"la2":30.254,"lo1":-89.0895,"lo2":-89.0444,"dx":0.0017,"dy":0.0017,"nx":28,"ny":28,"refTime":"2022-12-16T09:00:00:Z","depth":0,"parameterNumber":2,"parameterNumberName":"U-component_of_WINDS"},"data":[0,0,0,0,0,0,0,0,0,0,0,0,0,0,0,0,0,0,0,0,0,0,0,0,0,0,0,0,0,0,0,0,0,0,0,0,0,0,0,0,0,0,0,0,0,0,0,0,0,0,0,0,0,0,0,0,0,0,1.4119,1.4118,0,1.409,1.409,1.4089,1.4084,1.4085,1.4085,1.4085,1.4053,1.4052,1.4051,0,0,0,0,0,0,0,0,0,0,0,0,0,1.4165,1.4164,1.4119,1.4118,1.4118,1.409,1.409,1.4089,1.4084,1.4085,1.4085,1.4085,1.4053,1.4052,1.4051,0,0,0,0,0,0,0,0,0,0,0,0,0,1.4141,1.4164,1.4119,1.4112,1.4111,1.409,1.409,1.4089,1.4084,1.4085,1.4085,1.4085,1.4054,1.4052,1.405,1.4033,0,0,1.4045,1.4045,0,0,0,0,0,0,0,0,1.4143,1.414,1.4114,1.4113,1.4112,1.4091,1.4094,1.407,1.4084,1.4094,1.4085,1.4086,1.4065,1.4063,1.4056,1.4031,1.403,1.4045,1.4044,1.4044,1.4043,0,0,0,0,0,0,0,1.4144,1.4141,1.4107,1.4113,1.4112,1.4109,1.4106,1.409,1.4078,1.4094,1.4093,1.409,1.4065,1.4058,1.4055,1.403,1.4045,1.4044,1.4043,1.4042,1.3986,1.3985,0,0,0,0,0,0,1.4148,1.4142,1.4108,1.4106,1.4129,1.4108,1.4105,1.4097,1.4078,1.4076,1.409,1.409,1.406,1.4057,1.4054,1.4031,1.4044,1.4042,1.4041,1.3986,1.3985,1.3985,0,0,0,0,0,0,1.4149,1.4145,1.4109,1.4124,1.412,1.4107,1.4099,1.4097,1.409,1.4075,1.4073,1.4085,1.4061,1.4057,1.4038,1.4029,1.4041,1.404,1.3987,1.3986,1.3985,1.3984,0,0,0,0,0,0,1.415,1.4145,1.414,1.4124,1.4119,1.4095,1.4098,1.4096,1.4087,1.4087,1.407,1.4068,1.4061,1.404,1.4036,1.4027,1.4039,1.3987,1.3986,1.3985,1.3985,1.3983,1.3982,0,0,0,0,0,1.4152,1.414,1.4139,1.4135,1.4112,1.4094,1.4091,1.4084,1.4087,1.408,1.407,1.4068,1.4031,1.4038,1.4034,1.4024,1.3988,1.3987,1.3985,1.3985,1.3984,1.3982,0,0,0,0,0,0,1.4155,1.4138,1.4137,1.4121,1.4109,1.4094,1.4085,1.4083,1.4069,1.407,1.406,1.4056,1.4037,1.4029,1.4037,1.4005,1.4009,1.4007,1.4011,1.4009,1.4008,1.401,1.4037,0,0,0,0,0,1.4154,1.4142,1.4128,1.4115,1.4109,1.4098,1.409,1.4085,1.4072,1.4067,1.4056,1.4043,1.4028,1.4018,1.4004,1.3984,1.3978,1.3975,1.3973,1.3972,1.397,1.3956,1.3953,1.3981,1.3981,1.3981,0,0,1.4151,1.414,1.4134,1.4115,1.4105,1.4092,1.4094,1.408,1.4069,1.4065,1.4046,1.4037,1.4022,1.4001,1.3992,1.3994,1.3961,1.3971,1.397,1.3968,1.3954,1.3952,1.3949,1.398,1.398,1.398,0,0,1.4139,1.4131,1.4118,1.4108,1.4093,1.4086,1.4082,1.4067,1.4061,1.4042,1.4038,1.4024,1.3999,1.3987,1.3978,1.3959,1.3956,1.3955,1.3947,1.3934,1.3931,1.3929,1.392,1.3917,1.3953,1.3953,1.3953,0,1.4137,1.4118,1.4111,1.4097,1.4088,1.4083,1.4069,1.4059,1.404,1.4033,1.4036,1.4003,1.3992,1.3968,1.3963,1.3956,1.395,1.3956,1.3933,1.393,1.3928,1.392,1.3916,1.3953,1.3953,1.3953,1.3953,0,1.4115,1.4102,1.4093,1.4075,1.4065,1.4051,1.404,1.403,1.4025,1.4017,1.3996,1.3983,1.3965,1.3959,1.3954,1.3933,1.3934,1.3935,1.3939,1.3926,1.3917,1.3914,1.3952,1.3952,1.3952,1.3952,0,0,1.4105,1.4083,1.4079,1.407,1.4053,1.4041,1.4026,1.4008,1.3999,1.3985,1.397,1.3948,1.3948,1.3937,1.3931,1.392,1.3902,1.3921,1.3921,1.3917,1.3875,1.3873,1.3869,1.39,1.39,1.3899,1.3875,0,1.409,1.4064,1.4056,1.4033,1.4019,1.4013,1.3999,1.3986,1.3977,1.3962,1.3952,1.3935,1.3938,1.3931,1.3919,1.3907,1.3893,1.3909,1.3884,1.3883,1.3887,1.3865,1.3864,1.3843,1.3872,1.3871,1.3871,0,1.4069,1.4055,1.4031,1.4013,1.4007,1.3995,1.3976,1.3963,1.3947,1.3941,1.3928,1.3922,1.3903,1.3909,1.3882,1.3892,1.3881,1.3874,1.3873,1.3869,1.3876,1.3859,1.3836,1.3832,1.3866,1.3867,1.3867,0,1.4062,1.4037,1.4019,1.4011,1.399,1.3981,1.3972,1.3956,1.3945,1.3929,1.3921,1.3903,1.3892,1.3877,1.3865,1.3871,1.3838,1.3843,1.383,1.383,1.3823,1.3823,1.3795,1.3819,1.3819,1.3819,1.3819,0,1.4046,1.403,1.4015,1.4004,1.3985,1.3976,1.3957,1.3947,1.3933,1.3917,1.3911,1.3897,1.3883,1.3866,1.3857,1.3834,1.383,1.3823,1.382,1.3822,1.3823,1.3814,1.3815,1.3818,1.3818,1.3818,1.3818,0,1.4035,1.4025,1.4003,1.3985,1.398,1.3967,1.395,1.3937,1.3927,1.3908,1.3903,1.3887,1.3866,1.3853,1.3827,1.3821,1.3795,1.3794,1.38,1.3799,1.3786,1.3786,1.375,1.3744,1.3773,1.3773,1.3772,0,1.4025,1.4013,1.3992,1.3982,1.3973,1.3956,1.3945,1.3934,1.3922,1.3901,1.389,1.3869,1.3851,1.3818,1.3803,1.3782,1.3779,1.3768,1.3776,1.3778,1.3776,1.3777,1.3774,1.3766,1.3766,1.3766,1.3766,0,1.4007,1.4001,1.3986,1.3967,1.3954,1.3939,1.3924,1.3915,1.3901,1.3887,1.3866,1.3853,1.3825,1.3803,1.3781,1.3769,1.3763,1.3763,1.3758,1.376,1.3764,1.3759,1.3795,1.3764,1.3764,1.3764,1.3764,1.3764,1.3995,1.3983,1.3966,1.3948,1.3935,1.392,1.3907,1.3895,1.3877,1.3855,1.3849,1.3826,1.3806,1.3775,1.3763,1.3743,1.3745,1.3739,1.3737,1.3735,1.3734,1.3768,1.3739,1.3739,1.3739,1.3739,1.3739,0,1.3975,1.3963,1.3947,1.3925,1.391,1.3908,1.389,1.3877,1.3857,1.384,1.3823,1.3797,1.3775,1.3757,1.3734,1.3721,1.3718,1.3716,1.3716,1.3712,1.3735,1.374,1.3718,1.3718,1.3718,1.3718,1.3718,1.3718,1.3963,1.3942,1.3934,1.3905,1.3893,1.3871,1.3861,1.3846,1.3832,1.3804,1.3786,1.3775,1.3756,1.3731,1.371,1.3705,1.3696,1.3693,1.3687,1.3709,1.3711,1.3713,1.3718,1.3692,1.3692,1.3666,1.3666,1.3666]},{"header":{"parameterUnit":"m.s-1","parameterCategory":1,"la1":30.2991,"la2":30.254,"lo1":-89.0895,"lo2":-89.0444,"dx":0.0017,"dy":0.0017,"nx":28,"ny":28,"refTime":"2022-12-16T09:00:00:Z","depth":0,"parameterNumber":3,"parameterNumberName":"V-component_of_WINDS"},"data":[0,0,0,0,0,0,0,0,0,0,0,0,0,0,0,0,0,0,0,0,0,0,0,0,0,0,0,0,0,0,0,0,0,0,0,0,0,0,0,0,0,0,0,0,0,0,0,0,0,0,0,0,0,0,0,0,0,0,1.0463,1.0466,0,1.073,1.0733,1.0736,1.0772,1.0769,1.0767,1.0764,1.104,1.105,1.1059,0,0,0,0,0,0,0,0,0,0,0,0,0,0.9983,0.9992,1.0462,1.0466,1.0469,1.073,1.0733,1.0737,1.0772,1.0769,1.0766,1.0763,1.1037,1.1049,1.106,0,0,0,0,0,0,0,0,0,0,0,0,0,1.0215,0.9994,1.0462,1.0518,1.0526,1.0729,1.0734,1.0738,1.0773,1.0769,1.0765,1.0762,1.1033,1.1047,1.1062,1.1228,0,0,1.1106,1.1113,0,0,0,0,0,0,0,0,1.0202,1.0233,1.0507,1.0515,1.0524,1.0714,1.0666,1.0902,1.0774,1.0679,1.0764,1.076,1.0935,1.0957,1.1016,1.1241,1.1253,1.1108,1.1117,1.1123,1.1127,0,0,0,0,0,0,0,1.0186,1.0221,1.0568,1.051,1.0521,1.053,1.0559,1.0711,1.0825,1.0687,1.069,1.0722,1.0939,1.1002,1.1023,1.1257,1.1107,1.112,1.1129,1.1135,1.1631,1.1635,0,0,0,0,0,0,1.0159,1.0208,1.056,1.0576,1.035,1.0542,1.0574,1.0657,1.0824,1.0845,1.0724,1.0722,1.0979,1.1006,1.1032,1.1238,1.1123,1.1136,1.1145,1.1627,1.1632,1.1637,0,0,0,0,0,0,1.0149,1.019,1.0549,1.0393,1.0439,1.0554,1.0647,1.0664,1.0727,1.0852,1.0873,1.0768,1.0977,1.1012,1.1179,1.1248,1.1143,1.1156,1.1621,1.1628,1.1634,1.1651,0,0,0,0,0,0,1.0135,1.0186,1.0251,1.0394,1.0448,1.0691,1.0651,1.0672,1.0752,1.0751,1.0898,1.0919,1.0977,1.1157,1.1193,1.1266,1.1167,1.1616,1.1625,1.1632,1.1645,1.1657,1.1668,0,0,0,0,0,1.0118,1.0245,1.0254,1.0296,1.053,1.0695,1.0726,1.0789,1.0757,1.0823,1.0903,1.0914,1.1234,1.1174,1.1215,1.1294,1.1612,1.1622,1.1632,1.1639,1.1655,1.1668,0,0,0,0,0,0,1.0108,1.0265,1.0276,1.0454,1.0561,1.0701,1.0786,1.0803,1.0922,1.0917,1.0991,1.1024,1.1187,1.1257,1.1187,1.1463,1.142,1.1439,1.1412,1.1427,1.1439,1.1419,1.118,0,0,0,0,0,1.0126,1.0246,1.0377,1.0521,1.0574,1.067,1.0744,1.0784,1.0898,1.0944,1.1036,1.1146,1.1272,1.1353,1.1476,1.1654,1.1687,1.1728,1.174,1.1749,1.1765,1.1864,1.1884,1.167,1.167,1.1669,0,0,1.0165,1.0266,1.0338,1.0522,1.0609,1.0732,1.0708,1.084,1.0932,1.0964,1.1127,1.1198,1.1326,1.15,1.1581,1.1563,1.1831,1.1761,1.1768,1.1779,1.1876,1.1896,1.1914,1.1676,1.1675,1.1674,0,0,1.03,1.0388,1.0518,1.0606,1.0738,1.0801,1.0831,1.0969,1.1017,1.1182,1.1208,1.1319,1.1533,1.1624,1.1698,1.1865,1.1879,1.1902,1.1964,1.206,1.2077,1.2092,1.2152,1.2173,1.1917,1.1917,1.1917,0,1.0333,1.0519,1.0583,1.0713,1.0793,1.0826,1.0958,1.104,1.1206,1.1261,1.1238,1.1507,1.1596,1.1791,1.1831,1.1889,1.1927,1.1887,1.2069,1.2085,1.21,1.2159,1.2181,1.1919,1.1919,1.1919,1.1919,0,1.0553,1.0682,1.0771,1.0929,1.1019,1.1149,1.1232,1.1316,1.1347,1.1412,1.1579,1.1686,1.183,1.1879,1.1911,1.2079,1.2063,1.2054,1.2013,1.2122,1.2178,1.2201,1.1922,1.1921,1.1921,1.192,0,0,1.0692,1.0882,1.0914,1.0985,1.1133,1.1234,1.1365,1.1505,1.1576,1.1688,1.1801,1.198,1.1972,1.2056,1.2098,1.2182,1.2308,1.2163,1.2167,1.2187,1.2499,1.2506,1.2531,1.2318,1.2322,1.2326,1.2489,0,1.0845,1.108,1.114,1.1341,1.146,1.1492,1.1607,1.1709,1.1773,1.1884,1.1955,1.2081,1.2061,1.2111,1.2196,1.2275,1.2372,1.2263,1.2424,1.2429,1.2392,1.2561,1.2569,1.2718,1.2511,1.2515,1.2517,0,1.1056,1.1172,1.1384,1.1514,1.1567,1.1669,1.1802,1.1907,1.2024,1.2064,1.2157,1.2191,1.2329,1.2279,1.247,1.2395,1.2464,1.2512,1.252,1.2539,1.2481,1.2585,1.2767,1.279,1.2552,1.255,1.2547,0,1.1137,1.1346,1.15,1.156,1.1716,1.1787,1.1855,1.1968,1.2048,1.2164,1.2217,1.2348,1.242,1.252,1.2588,1.2546,1.2775,1.273,1.2813,1.2811,1.2861,1.2858,1.3058,1.2903,1.2903,1.2902,1.2902,0,1.1303,1.1431,1.1538,1.1633,1.1778,1.1845,1.1987,1.2056,1.2156,1.2265,1.23,1.2401,1.2484,1.2597,1.2651,1.2801,1.2833,1.287,1.2883,1.2868,1.2864,1.2916,1.2908,1.2908,1.2907,1.2906,1.2905,0,1.1419,1.1495,1.1665,1.1798,1.1834,1.1935,1.205,1.2143,1.2206,1.2344,1.238,1.2481,1.2615,1.2692,1.2862,1.2898,1.3066,1.3073,1.3026,1.3032,1.3111,1.3103,1.3354,1.339,1.3209,1.321,1.3212,0,1.152,1.162,1.1763,1.1838,1.1907,1.2028,1.2109,1.2178,1.2262,1.2401,1.2478,1.2614,1.2727,1.294,1.3029,1.3158,1.317,1.3249,1.319,1.3172,1.3173,1.3167,1.3177,1.326,1.3261,1.3263,1.3264,0,1.1693,1.1725,1.1841,1.197,1.2066,1.2171,1.2276,1.2335,1.2422,1.2514,1.2651,1.2739,1.2911,1.3046,1.3182,1.3253,1.3274,1.3281,1.3307,1.3294,1.3263,1.3282,1.3055,1.3276,1.3274,1.3273,1.3273,1.3272,1.1806,1.1896,1.201,1.2138,1.2223,1.232,1.2414,1.2488,1.2604,1.2749,1.2782,1.2927,1.304,1.3226,1.3299,1.3414,1.34,1.3438,1.3448,1.3456,1.3459,1.3243,1.3439,1.3438,1.3438,1.3438,1.3438,0,1.1981,1.2056,1.2172,1.2317,1.2417,1.2425,1.2541,1.2624,1.2751,1.2854,1.2964,1.3122,1.3252,1.335,1.3483,1.3556,1.3569,1.3589,1.3585,1.3601,1.3464,1.3428,1.3577,1.3576,1.3576,1.3576,1.3576,1.3576,1.2084,1.2237,1.2282,1.2477,1.2551,1.2692,1.2758,1.2847,1.2929,1.3103,1.3212,1.3274,1.3375,1.3516,1.3636,1.3662,1.371,1.3729,1.3756,1.3626,1.3611,1.3597,1.3564,1.3738,1.3739,1.3884,1.3886,1.3887]}]]